Weather History for Roosevelt Roads, PR

Change the Weather History Date:

Sunday, November 3, 2013

  Actual Average Record
Temperature  
Mean Temperature 80 °F -  
Max Temperature 84 °F 83 °F 88 °F (2012)
Min Temperature 75 °F 71 °F 46 °F (1997)
Cooling Degree Days 14    
Growing Degree Days 30 (Base 50)    
Moisture  
Dew Point 75 °F    
Average Humidity 89    
Maximum Humidity 96    
Minimum Humidity 74    
Precipitation  
Precipitation 0.42 in - - ()
Sea Level Pressure  
Sea Level Pressure 29.93 in    
Wind  
Wind Speed 7 mph (SSW)    
Max Wind Speed 17 mph    
Max Gust Speed 24 mph    
Visibility 9 miles    
Events Rain    
Averages and records for this station are not official NWS values.
T = Trace of Precipitation, MM = Missing Value Source: NWS Daily Summary

Daily Weather History Graph

Daily Weather History Graph

Search for Another Location

Airport:

Trip Planner

Search our weather history database for the weather conditions in past years. The results will help you decide how hot, cold, wet, or windy it might be!

Date:

Astronomy

Nov. 03, 2013 Rise Set
Actual Time 6:22 AM AST 5:48 PM AST
Civil Twilight 6:00 AM AST 6:11 PM AST
Nautical Twilight 5:34 AM AST 6:37 PM AST
Astronomical Twilight 5:08 AM AST 7:03 PM AST
Moon 6:21 AM AST (11/3) 6:04 PM AST (11/3)
Length of Visible Light 12h 11m
Length of Day
11h 26m
New Moon, 0% of the Moon is Illuminated
Nov 3
New Moon
Nov 10
First Quarter
Nov 17
Full
Nov 25
Last Quarter
Dec 2
New

Hourly Weather History & Observations

Time (AST) Temp. Heat Index Dew Point Humidity Pressure Visibility Wind Dir Wind Speed Gust Speed Precip Events Conditions
12:53 AM 79.0 °F - 75.9 °F 90% 29.93 in 10.0 mi West 3.5 mph - N/A   Partly Cloudy
1:30 AM 78.8 °F - 75.2 °F 89% 29.92 in 10.0 mi Calm Calm - N/A   Mostly Cloudy
1:37 AM 78.8 °F - 77.0 °F 94% 29.92 in 10.0 mi Calm Calm - N/A   Scattered Clouds
1:53 AM 79.0 °F - 75.9 °F 90% 29.92 in 10.0 mi SSE 5.8 mph - N/A   Scattered Clouds
2:53 AM 79.0 °F - 75.9 °F 90% 29.91 in 10.0 mi WSW 13.8 mph - N/A   Overcast
3:01 AM 77.0 °F - 73.4 °F 89% 29.91 in 10.0 mi SW 16.1 mph 24.2 mph N/A   Overcast
3:36 AM 75.2 °F - 73.4 °F 94% 29.91 in 4.0 mi SW 11.5 mph - 0.04 in Rain Rain
3:39 AM 75.2 °F - 73.4 °F 94% 29.91 in 2.5 mi SW 15.0 mph - 0.07 in Rain Rain
3:45 AM 75.2 °F - 73.4 °F 94% 29.91 in 1.2 mi SW 17.3 mph 20.7 mph 0.19 in Rain Heavy Rain
3:53 AM 75.9 °F - 73.9 °F 94% 29.91 in 1.8 mi SSW 12.7 mph - 0.25 in Rain Rain
3:56 AM 75.2 °F - 73.4 °F 94% 29.91 in 2.5 mi SSW 13.8 mph - 0.01 in Rain Rain
4:04 AM 75.2 °F - 73.4 °F 94% 29.91 in 3.0 mi SW 8.1 mph - 0.04 in Rain Rain
4:53 AM 75.9 °F - 73.9 °F 94% 29.90 in 10.0 mi SW 10.4 mph - 0.07 in Rain Light Rain
5:09 AM 75.2 °F - 73.4 °F 94% 29.90 in 10.0 mi SW 9.2 mph - 0.00 in   Overcast
5:20 AM 75.2 °F - 73.4 °F 94% 29.90 in 10.0 mi WSW 6.9 mph - 0.00 in   Mostly Cloudy
5:53 AM 75.9 °F - 73.9 °F 94% 29.91 in 10.0 mi SSW 5.8 mph - 0.00 in   Partly Cloudy
6:53 AM 75.9 °F - 73.9 °F 94% 29.92 in 10.0 mi Calm Calm - N/A   Clear
7:53 AM 77.0 °F - 75.9 °F 96% 29.94 in 10.0 mi SSW 4.6 mph - N/A   Partly Cloudy
8:53 AM 80.1 °F 85.4 °F 75.9 °F 87% 29.96 in 10.0 mi SW 5.8 mph - N/A   Partly Cloudy
9:42 AM 80.6 °F 87.1 °F 77.0 °F 89% 29.98 in 10.0 mi SW 4.6 mph - N/A   Overcast
9:53 AM 80.1 °F 85.4 °F 75.9 °F 87% 29.99 in 10.0 mi SSE 6.9 mph - N/A   Overcast
10:15 AM 80.6 °F 86.2 °F 75.2 °F 84% 29.98 in 10.0 mi SSE 11.5 mph - N/A   Mostly Cloudy
10:38 AM 82.4 °F 90.9 °F 77.0 °F 84% 29.97 in 10.0 mi SSE 8.1 mph - N/A   Overcast
10:53 AM 82.0 °F 90.2 °F 77.0 °F 85% 29.97 in 10.0 mi SSE 10.4 mph - N/A   Overcast
11:02 AM 82.4 °F 90.9 °F 77.0 °F 84% 29.97 in 9.0 mi SSE 12.7 mph - N/A   Overcast
11:38 AM 82.4 °F 88.2 °F 73.4 °F 74% 29.97 in 10.0 mi SSE 10.4 mph - N/A   Overcast
11:53 AM 82.0 °F 88.6 °F 75.0 °F 79% 29.96 in 10.0 mi South 12.7 mph - N/A   Mostly Cloudy
12:53 PM 84.0 °F 92.6 °F 75.9 °F 76% 29.93 in 10.0 mi SSE 11.5 mph - N/A   Mostly Cloudy
1:53 PM 84.0 °F 92.6 °F 75.9 °F 76% 29.92 in 10.0 mi South 12.7 mph - N/A   Partly Cloudy
2:53 PM 84.0 °F 92.6 °F 75.9 °F 76% 29.90 in 10.0 mi SSE 9.2 mph - N/A   Mostly Cloudy
3:53 PM 82.9 °F 90.8 °F 75.9 °F 79% 29.89 in 10.0 mi South 8.1 mph - N/A   Partly Cloudy
4:12 PM 82.4 °F 89.5 °F 75.2 °F 79% 29.89 in 10.0 mi South 10.4 mph - N/A   Mostly Cloudy
4:38 PM 78.8 °F - 73.4 °F 83% 29.90 in 5.0 mi SW 12.7 mph 23.0 mph 0.01 in Rain Rain
4:53 PM 78.1 °F - 73.9 °F 87% 29.91 in 9.0 mi SSW 11.5 mph - 0.02 in Rain Light Rain
5:53 PM 77.0 °F - 73.9 °F 90% 29.90 in 10.0 mi WSW 4.6 mph - 0.03 in Rain Light Rain
6:15 PM 77.0 °F - 73.4 °F 89% 29.90 in 10.0 mi SW 4.6 mph - 0.00 in   Mostly Cloudy
6:42 PM 78.8 °F - 75.2 °F 89% 29.91 in 10.0 mi SW 4.6 mph - 0.00 in   Scattered Clouds
6:53 PM 78.1 °F - 75.9 °F 93% 29.92 in 10.0 mi WSW 3.5 mph - 0.00 in   Scattered Clouds
7:18 PM 78.8 °F - 77.0 °F 94% 29.93 in 10.0 mi Calm Calm - N/A   Mostly Cloudy
7:30 PM 80.6 °F 87.1 °F 77.0 °F 89% 29.93 in 10.0 mi SSW 5.8 mph - N/A   Mostly Cloudy
7:44 PM 78.8 °F - 75.2 °F 89% 29.93 in 10.0 mi WSW 4.6 mph - N/A   Mostly Cloudy
7:53 PM 79.0 °F - 75.0 °F 88% 29.94 in 10.0 mi SW 4.6 mph - N/A   Mostly Cloudy
8:12 PM 78.8 °F - 75.2 °F 89% 29.94 in 10.0 mi SW 3.5 mph - N/A   Mostly Cloudy
8:53 PM 78.1 °F - 75.0 °F 90% 29.95 in 10.0 mi Calm Calm - N/A   Overcast
9:36 PM 75.2 °F - 73.4 °F 94% 29.96 in 4.0 mi WSW 11.5 mph 20.7 mph 0.05 in Rain Light Rain
9:53 PM 75.9 °F - 73.0 °F 91% 29.96 in 10.0 mi West 10.4 mph - 0.05 in Rain Light Rain
10:53 PM 75.9 °F - 73.0 °F 91% 29.96 in 10.0 mi Calm Calm - 0.00 in   Mostly Cloudy
11:53 PM 75.0 °F - 73.9 °F 96% 29.94 in 10.0 mi Calm Calm - N/A   Clear